User: anonymous
Location: Bonn
(50.7330°N, 7.1000°E)
Time: 23:23:54
(UTC+02:00)
Language:

Cosmos 1933 Rocket - Orbit

View from above orbital plane
View from above orbital plane
View from above satellite
View from above satellite

Ground track
Ground track

The orbit data is extracted from the following two-line orbital elements,

1 18959U 88020B   14106.87943100  .00000582  00000-0  68968-4 0  2151
2 18959 082.5366 271.8695 0016484 357.6554 160.9624 14.82758639409048
Epoch (UTC): 16 April 2014 21:06:22
Eccentricity: 0.0016484
inclination: 82.5366°
perigee height: 609 km
apogee height: 632 km
right ascension of ascending node: 271.8695°
argument of perigee: 357.6554°
revolutions per day: 14.82758639
mean anomaly at epoch: 160.9624°
orbit number at epoch: 40904

The dashed part of the orbit path shows where the satellite is in the earth's shadow,  

DLR